Probability
0 0 0 0 0 0 0 0 0 0 0 0 0 0 0 0 0 0 0 0 0 0 6 32 45 35 42 42 35 35 39 39 39 35 35 39 35 35 29 23 23 26 26 23 19 16 6 10 13
0 0 0 0 0 0 0 0 0 0 0 0 0 0 0 0 0 0 0 0 0 0 10 26 45 35 39 39 35 35 35 32 32 39 35 35 32 29 29 23 23 23 19 16 16 16 16 10 13
0 0 0 0 0 0 0 0 0 0 0 0 0 0 0 0 0 0 0 0 0 3 10 13 42 39 39 35 32 32 35 35 29 32 32 35 32 26 23 19 23 19 19 19 23 19 16 10 10
0 0 0 0 0 0 0 0 0 0 0 0 0 0 0 0 0 0 0 0 0 0 6 10 39 35 35 29 29 32 29 32 29 29 32 32 32 35 26 26 16 16 16 19 19 13 16 10 10
0 0 0 0 0 0 0 0 0 0 0 0 0 0 0 0 0 0 0 0 0 0 3 6 23 29 29 26 29 26 26 29 29 32 29 29 32 35 35 26 19 16 16 23 19 13 10 10 10
0 0 0 0 0 0 0 0 0 0 0 0 0 0 0 0 0 0 0 0 3 3 3 6 19 26 32 23 26 19 26 23 23 26 29 29 26 26 23 23 19 19 16 19 16 10 6 6 10
0 0 0 0 0 0 0 0 0 0 0 0 0 0 0 0 0 0 3 3 3 6 3 3 6 13 16 19 26 23 19 23 23 19 26 19 26 23 19 16 19 19 19 19 19 10 3 6 10
0 0 0 0 0 0 0 0 0 0 0 0 0 0 0 0 0 0 3 3 3 3 0 3 6 3 3 6 13 13 19 19 19 16 13 13 13 16 16 16 13 16 16 13 10 10 6 6 3
0 0 0 0 0 0 0 0 0 0 0 0 0 0 0 0 0 0 0 3 3 3 0 0 6 3 3 3 3 6 13 13 10 6 3 0 0 3 0 0 3 13 13 13 10 6 3 3 0
0 0 0 0 0 0 0 0 0 0 0 0 0 0 0 0 0 0 0 3 3 6 6 6 3 3 3 3 3 3 3 0 0 0 0 0 0 0 0 0 0 0 3 3 6 6 3 0 0
0 0 0 0 0 0 0 0 0 0 0 0 0 0 0 0 0 0 0 0 0 0 3 3 3 3 3 3 3 3 0 0 0 0 0 0 0 0 0 0 0 0 0 0 0 0 0 0 0
0 0 0 0 0 0 0 0 0 0 0 0 0 0 0 0 0 0 0 0 0 0 0 0 3 3 3 3 3 3 0 0 0 0 0 0 0 0 0 0 0 0 0 0 0 0 0 0 0
0 0 0 0 0 0 0 0 0 0 0 0 0 0 0 0 0 0 0 0 0 0 0 0 0 3 3 3 3 3 0 0 0 0 0 0 0 0 0 0 0 0 0 0 0 0 0 0 0
0 0 0 0 0 0 0 0 0 0 0 0 0 0 0 0 0 0 0 0 0 0 0 0 0 0 0 0 0 0 0 0 0 0 0 0 0 0 0 0 0 0 0 0 0 0 0 0 0
0 0 0 0 0 0 0 0 0 0 0 0 0 0 0 0 0 0 0 0 0 0 0 0 0 0 0 0 0 0 0 0 0 0 0 0 0 0 0 0 0 0 0 0 0 0 0 0 0
0 0 0 0 0 0 0 0 0 0 0 0 0 0 0 0 0 0 0 0 0 0 0 0 0 0 0 0 0 0 0 0 0 0 0 0 0 0 0 0 0 0 0 0 0 0 0 0 0
0 0 0 0 0 0 0 0 0 0 0 0 0 0 0 0 0 0 0 0 0 0 0 0 0 0 0 0 0 0 0 0 0 0 0 0 0 0 0 0 0 0 0 0 0 0 0 0 0
0 0 0 0 0 0 0 0 0 0 0 0 0 0 0 0 0 0 0 0 0 0 0 0 0 0 0 0 0 0 0 0 0 0 0 0 0 0 0 0 0 0 0 0 0 0 0 0 0
0 0 0 0 0 0 0 0 0 0 0 0 0 0 0 0 0 0 0 0 0 0 0 0 0 0 0 0 0 0 0 0 0 0 0 0 0 0 0 0 0 0 0 0 0 0 0 0 0
0 0 0 0 0 0 0 0 0 0 0 0 0 0 0 0 0 0 0 0 0 0 0 0 0 0 0 0 0 0 0 0 0 0 0 0 0 0 0 0 0 0 0 0 0 0 0 0 0
0 0 0 0 0 0 0 0 0 0 0 0 0 0 0 0 0 0 0 0 0 0 0 0 0 0 0 0 0 0 0 0 0 0 0 0 0 0 0 0 0 0 0 0 0 0 0 0 0
0 0 0 0 0 0 0 0 0 0 0 0 0 0 0 0 0 0 0 0 0 0 0 0 0 0 0 0 0 0 0 0 0 0 0 0 0 0 0 0 0 0 0 0 0 0 0 0 0
0 0 0 0 0 0 0 0 0 0 0 0 0 0 0 0 0 0 0 0 0 0 0 0 0 0 0 0 0 0 0 0 0 0 0 0 0 0 0 0 0 0 0 0 0 0 0 0 0
0 0 0 0 0 0 0 0 0 0 0 0 0 0 0 0 0 0 0 0 0 0 0 0 0 0 0 0 0 0 0 0 0 0 0 0 0 0 0 0 0 0 0 0 0 0 0 0 0
0 0 0 0 0 0 0 0 0 0 0 0 0 0 0 0 0 0 0 0 0 0 0 0 0 0 0 0 0 0 0 0 0 0 0 0 0 0 0 0 0 0 0 0 0 0 0 0 0
0 0 0 0 0 0 0 0 0 0 0 0 0 0 0 0 0 0 0 0 0 0 0 0 0 0 0 0 0 0 0 0 0 0 0 0 0 0 0 0 0 0 0 0 0 0 0 0 0
0 0 0 0 0 0 0 0 0 0 0 0 0 0 0 0 0 0 0 0 0 0 0 0 0 0 0 0 0 0 0 0 0 0 0 0 0 0 0 0 0 0 0 0 0 0 0 0 0
0 0 0 0 0 0 0 0 0 0 0 0 0 0 0 0 0 0 0 0 0 0 0 0 0 0 0 0 0 0 0 0 0 0 0 0 0 0 0 0 0 0 0 0 0 0 0 0 0
0 0 0 0 0 0 0 0 0 0 0 0 0 0 0 0 0 0 0 0 0 0 0 0 0 0 0 0 0 0 0 0 0 0 0 0 0 0 0 0 0 0 0 0 0 0 0 0 0
0 0 0 0 0 0 0 0 0 0 0 0 0 0 0 0 0 0 0 0 0 0 0 0 0 0 0 0 0 0 0 0 0 0 0 0 0 0 0 0 0 0 0 0 0 0 0 0 0
Height
5814 5816 5818 5820 5822 5824 5826 5829 5830 5831 5833 5834 5835 5836 5838 5840 5842 5845 5845 5845 5846 5847 5848 5849 5849 5850 5851 5852 5852 5853 5854 5855 5855 5856 5857 5857 5858 5858 5859 5859 5859 5860 5860 5860 5860 5860 5860 5860 5860
5811 5813 5815 5816 5818 5820 5823 5825 5827 5828 5829 5831 5832 5833 5835 5836 5838 5840 5841 5842 5843 5844 5845 5846 5847 5848 5848 5849 5850 5850 5851 5852 5853 5853 5854 5855 5855 5855 5856 5856 5857 5857 5857 5858 5858 5858 5858 5858 5857
5807 5808 5811 5813 5814 5817 5820 5822 5823 5824 5826 5827 5829 5830 5832 5833 5835 5836 5838 5839 5840 5841 5842 5843 5844 5845 5846 5846 5847 5847 5848 5849 5850 5850 5851 5851 5852 5852 5853 5853 5854 5854 5854 5855 5855 5855 5855 5855 5854
5803 5805 5807 5809 5811 5814 5816 5818 5819 5821 5822 5824 5825 5827 5829 5831 5832 5833 5834 5835 5837 5838 5839 5840 5841 5842 5843 5843 5844 5845 5845 5846 5847 5847 5848 5848 5849 5849 5849 5850 5850 5850 5851 5851 5851 5851 5851 5851 5851
5798 5800 5802 5805 5807 5809 5811 5813 5815 5817 5818 5820 5822 5823 5825 5827 5828 5829 5831 5832 5833 5835 5836 5837 5838 5839 5839 5840 5841 5841 5842 5843 5843 5844 5844 5845 5845 5845 5846 5846 5846 5847 5847 5847 5847 5847 5847 5847 5847
5794 5795 5798 5800 5803 5805 5807 5809 5811 5813 5814 5816 5818 5819 5821 5823 5824 5826 5827 5829 5830 5831 5832 5833 5834 5835 5836 5837 5837 5838 5838 5839 5839 5840 5840 5841 5841 5841 5842 5842 5842 5842 5843 5843 5843 5843 5843 5843 5843
5789 5791 5793 5796 5798 5800 5803 5804 5806 5808 5810 5812 5813 5815 5817 5819 5820 5822 5823 5825 5826 5828 5829 5830 5831 5831 5832 5833 5833 5834 5834 5835 5835 5836 5836 5836 5837 5837 5837 5838 5838 5838 5838 5838 5839 5839 5839 5839 5839
5784 5787 5789 5791 5793 5795 5798 5799 5801 5803 5805 5807 5809 5811 5813 5815 5816 5818 5819 5821 5822 5823 5824 5825 5826 5827 5828 5828 5829 5829 5830 5830 5831 5831 5831 5832 5832 5832 5833 5833 5833 5834 5834 5834 5834 5834 5834 5834 5834
5778 5782 5784 5787 5789 5791 5792 5794 5797 5798 5800 5802 5804 5806 5808 5810 5811 5813 5815 5816 5818 5819 5820 5821 5822 5822 5823 5824 5824 5824 5825 5825 5826 5826 5826 5827 5827 5827 5828 5828 5828 5828 5828 5828 5828 5828 5829 5829 5828
5773 5776 5780 5782 5783 5785 5787 5789 5791 5793 5795 5797 5799 5801 5803 5805 5807 5808 5810 5811 5813 5814 5815 5816 5817 5817 5818 5818 5819 5819 5819 5820 5820 5820 5821 5821 5821 5821 5822 5822 5822 5822 5823 5823 5823 5823 5823 5823 5822
5767 5771 5774 5775 5777 5779 5781 5783 5785 5788 5790 5792 5793 5795 5797 5799 5801 5803 5805 5806 5807 5808 5809 5810 5811 5812 5813 5813 5814 5814 5814 5814 5814 5815 5815 5815 5815 5816 5816 5816 5816 5816 5816 5816 5816 5816 5816 5816 5816
5761 5764 5767 5769 5770 5772 5775 5777 5780 5782 5785 5786 5788 5789 5791 5793 5795 5797 5799 5800 5801 5802 5803 5804 5805 5806 5807 5807 5808 5808 5808 5809 5809 5809 5809 5809 5809 5809 5809 5809 5809 5809 5809 5810 5810 5809 5809 5809 5809
5754 5757 5759 5761 5763 5765 5768 5771 5773 5776 5778 5779 5781 5783 5785 5787 5789 5791 5792 5794 5795 5796 5797 5798 5799 5800 5801 5801 5802 5802 5802 5802 5802 5802 5802 5803 5803 5803 5803 5802 5802 5802 5802 5802 5802 5802 5802 5802 5801
5747 5750 5751 5754 5756 5758 5761 5764 5767 5770 5770 5773 5775 5777 5779 5781 5783 5785 5786 5787 5789 5790 5791 5791 5792 5793 5794 5795 5795 5795 5795 5796 5796 5796 5796 5795 5795 5795 5795 5795 5794 5794 5794 5794 5794 5794 5794 5794 5793
5739 5742 5744 5746 5748 5751 5753 5757 5760 5763 5763 5766 5769 5771 5773 5775 5776 5778 5780 5781 5782 5783 5784 5785 5785 5786 5787 5787 5788 5788 5788 5788 5789 5789 5788 5788 5787 5787 5787 5786 5786 5785 5785 5785 5785 5785 5785 5785 5784
5731 5733 5736 5740 5741 5743 5746 5750 5754 5754 5757 5759 5762 5764 5766 5768 5769 5771 5772 5774 5775 5776 5776 5777 5778 5778 5779 5780 5780 5780 5780 5780 5780 5780 5780 5779 5779 5778 5778 5777 5777 5776 5776 5775 5775 5775 5775 5775 5775
5722 5725 5728 5733 5733 5735 5737 5742 5746 5747 5749 5752 5755 5757 5759 5761 5762 5764 5765 5766 5767 5768 5769 5769 5770 5770 5771 5771 5771 5772 5772 5772 5772 5771 5771 5770 5769 5769 5768 5768 5767 5766 5766 5765 5764 5764 5764 5764 5764
5715 5717 5720 5724 5725 5727 5729 5733 5738 5739 5741 5745 5747 5749 5751 5753 5755 5756 5757 5758 5759 5760 5760 5761 5761 5762 5762 5762 5763 5763 5763 5763 5762 5762 5761 5760 5759 5759 5758 5757 5757 5755 5754 5754 5753 5753 5753 5753 5753
5706 5709 5712 5715 5716 5718 5720 5725 5729 5731 5734 5737 5739 5741 5743 5745 5746 5747 5748 5749 5750 5751 5752 5752 5753 5753 5753 5753 5753 5754 5754 5753 5753 5752 5751 5750 5749 5748 5747 5746 5745 5744 5742 5741 5741 5740 5740 5741 5740
5697 5700 5704 5707 5708 5709 5712 5716 5720 5722 5725 5728 5731 5733 5735 5736 5738 5739 5740 5740 5741 5742 5743 5743 5743 5743 5743 5743 5743 5744 5743 5743 5743 5742 5741 5740 5739 5737 5736 5735 5733 5732 5730 5729 5728 5728 5728 5728 5727
5689 5692 5695 5697 5699 5700 5703 5708 5712 5715 5717 5719 5722 5724 5726 5728 5729 5730 5731 5731 5732 5733 5733 5733 5733 5733 5733 5733 5733 5733 5732 5732 5732 5731 5731 5729 5728 5726 5725 5723 5721 5720 5718 5717 5716 5715 5714 5715 5714
5680 5684 5686 5688 5689 5692 5695 5697 5705 5707 5708 5711 5713 5715 5717 5719 5720 5721 5722 5722 5723 5723 5723 5723 5723 5723 5722 5722 5722 5722 5722 5722 5722 5721 5720 5719 5717 5715 5714 5712 5710 5708 5706 5704 5703 5702 5701 5701 5701
5672 5675 5677 5679 5680 5683 5686 5687 5695 5698 5700 5702 5705 5706 5708 5709 5710 5711 5712 5712 5712 5712 5712 5712 5712 5712 5711 5711 5711 5711 5711 5710 5710 5709 5709 5708 5706 5704 5702 5700 5697 5695 5693 5692 5690 5689 5688 5687 5686
5663 5666 5668 5669 5670 5673 5679 5678 5683 5689 5692 5694 5696 5697 5698 5699 5700 5701 5701 5701 5701 5701 5701 5701 5702 5701 5701 5701 5700 5700 5700 5699 5699 5698 5697 5696 5695 5692 5690 5687 5685 5682 5680 5679 5677 5676 5675 5673 5672
5654 5657 5658 5659 5660 5664 5669 5669 5674 5680 5683 5685 5687 5687 5688 5689 5690 5690 5690 5691 5691 5691 5691 5690 5690 5691 5691 5690 5690 5689 5689 5688 5688 5687 5686 5685 5683 5681 5678 5675 5673 5670 5668 5666 5665 5663 5662 5660 5657
5645 5648 5651 5652 5653 5656 5659 5660 5667 5671 5673 5674 5676 5677 5678 5678 5679 5679 5680 5680 5680 5680 5679 5679 5679 5680 5680 5680 5679 5678 5678 5677 5676 5675 5674 5672 5671 5668 5666 5663 5661 5658 5656 5654 5652 5649 5647 5645 5643
5635 5638 5642 5643 5643 5645 5648 5653 5658 5661 5663 5664 5666 5667 5667 5668 5669 5669 5669 5669 5669 5669 5669 5669 5669 5669 5669 5668 5668 5667 5667 5666 5665 5664 5662 5660 5658 5656 5654 5651 5648 5646 5643 5640 5638 5636 5634 5631 5629
5626 5629 5631 5632 5633 5635 5639 5644 5649 5652 5653 5654 5656 5657 5657 5657 5658 5658 5659 5659 5659 5659 5658 5658 5658 5658 5658 5657 5657 5656 5655 5654 5653 5652 5650 5648 5646 5643 5641 5639 5636 5633 5631 5628 5625 5623 5620 5618 5615
5617 5619 5621 5623 5625 5627 5629 5637 5640 5642 5643 5644 5645 5646 5647 5647 5648 5648 5648 5648 5648 5648 5648 5648 5648 5647 5647 5646 5646 5645 5644 5642 5641 5640 5638 5635 5633 5631 5629 5626 5623 5621 5618 5615 5612 5609 5606 5604 5601
5606 5609 5612 5615 5616 5618 5620 5628 5630 5632 5633 5634 5635 5636 5636 5637 5637 5638 5638 5638 5638 5638 5638 5638 5637 5637 5636 5635 5634 5633 5632 5631 5629 5628 5625 5623 5621 5619 5616 5613 5610 5607 5604 5601 5598 5595 5592 5589 5587
Wind_Speed
22 23 23 24 24 23 22 20 20 19 19 19 19 19 18 18 17 17 16 15 14 14 14 14 14 14 13 13 13 13 13 13 13 13 13 12 12 13 13 13 13 12 12 12 12 12 13 13 13
22 23 24 24 24 23 21 21 20 20 20 20 20 19 18 18 18 17 16 16 15 15 15 14 14 14 14 14 14 14 14 14 14 15 15 15 14 15 15 15 15 15 15 15 15 15 15 15 15
23 24 24 24 24 23 22 21 22 22 21 21 20 19 19 18 18 17 17 17 16 16 16 15 15 15 15 15 15 15 15 15 15 16 16 16 17 17 17 17 17 17 17 17 17 17 17 16 16
24 25 25 25 24 23 23 23 23 22 22 22 21 20 19 19 19 18 18 17 17 17 16 16 16 16 16 16 16 16 16 17 17 17 18 18 18 19 19 18 19 19 19 19 19 19 19 18 18
25 25 26 25 24 24 24 24 24 23 23 23 22 21 21 20 20 19 19 18 18 18 18 18 17 17 17 17 17 18 18 18 18 18 19 19 20 20 20 20 20 20 20 20 20 20 20 20 20
25 25 25 25 24 24 24 24 24 24 24 24 24 23 22 22 21 21 20 20 19 19 19 19 19 19 19 19 19 20 20 20 20 20 21 21 21 21 21 21 21 21 21 21 21 21 22 22 22
25 25 25 24 24 24 24 25 25 25 25 25 25 24 24 23 23 22 21 21 21 21 21 20 20 20 20 20 21 21 22 22 22 22 22 23 22 22 22 22 22 22 22 23 23 23 23 23 23
26 26 24 24 24 24 25 26 26 26 26 26 26 25 25 24 24 24 23 22 22 22 22 22 22 22 22 22 22 23 23 24 24 24 24 25 24 24 24 24 24 24 24 25 25 25 25 25 25
27 26 25 24 25 25 26 27 27 27 27 27 27 26 26 25 25 25 24 24 24 24 24 24 24 24 24 24 24 24 24 25 25 25 25 25 25 26 25 25 25 26 26 27 27 27 27 28 28
28 27 25 26 26 27 27 27 27 27 27 28 28 28 27 27 27 26 25 25 25 25 26 25 25 25 25 25 25 25 25 26 26 26 26 26 26 26 27 27 28 28 28 29 29 29 29 29 30
29 28 27 28 28 28 28 27 27 27 27 28 29 29 28 28 28 27 27 27 27 27 27 27 27 26 26 26 26 26 26 26 27 27 27 28 28 27 28 29 29 30 30 30 31 31 31 31 31
31 30 29 30 30 30 30 28 27 27 28 29 29 29 29 28 28 28 28 28 28 28 28 28 28 28 28 27 27 26 26 26 27 28 28 29 29 29 29 30 30 31 31 31 32 32 32 32 33
32 31 32 32 32 31 31 30 29 27 29 30 30 29 29 29 29 29 29 29 29 30 30 30 30 29 29 29 29 28 28 28 28 28 29 30 30 31 31 31 32 32 33 33 34 34 34 34 34
32 33 33 33 33 33 32 31 30 28 31 31 30 30 29 29 29 29 29 29 30 30 30 31 30 30 30 30 30 30 30 30 30 30 31 32 32 33 34 34 34 35 36 36 37 37 37 38 37
34 34 34 34 34 34 34 33 31 31 32 32 31 31 30 30 30 30 30 30 31 31 32 32 32 32 33 33 33 33 33 33 32 33 34 35 35 35 36 37 37 38 39 39 40 40 40 40 40
37 37 36 34 35 35 36 33 32 33 33 32 32 31 31 31 31 32 32 32 32 33 33 34 34 34 35 35 35 35 35 35 35 35 36 37 37 38 38 39 40 40 41 42 42 42 42 42 42
39 38 37 35 37 37 37 34 33 34 34 33 33 33 33 33 33 33 34 34 34 35 35 35 35 36 36 37 37 38 37 37 38 38 38 38 39 40 40 41 42 43 43 44 44 44 44 44 44
39 38 37 36 37 38 39 37 35 35 35 35 35 35 35 34 34 35 35 36 36 36 36 37 37 37 38 39 39 40 40 40 39 40 40 40 41 41 42 43 44 45 45 46 46 47 47 47 47
39 39 38 37 38 39 40 38 37 37 36 36 35 36 36 36 36 36 36 37 37 37 38 38 38 39 39 40 40 41 41 41 41 41 42 42 42 43 43 44 45 46 47 48 47 48 49 49 50
40 40 38 38 39 40 40 39 37 37 37 36 36 36 37 37 37 37 37 38 38 39 39 39 39 40 40 41 41 42 42 43 43 42 43 43 43 44 44 45 46 47 48 49 49 49 50 51 51
40 40 38 39 40 41 42 40 37 37 38 38 37 37 37 37 37 38 38 39 39 39 40 40 40 41 41 42 42 43 43 44 44 44 44 44 45 45 45 46 47 47 48 49 50 50 51 51 52
40 40 40 40 41 41 42 42 37 38 38 38 38 38 38 38 38 39 39 40 40 41 41 41 42 42 43 43 43 44 44 44 44 45 45 46 46 46 46 46 48 49 49 49 50 51 52 52 53
41 40 41 41 42 43 42 44 40 39 38 38 37 38 39 39 39 40 41 41 41 41 41 42 42 42 43 44 44 44 44 45 45 46 46 46 47 47 47 47 48 49 50 51 51 51 52 53 54
41 41 41 42 43 45 43 44 43 40 38 37 38 39 40 40 41 41 41 41 41 41 41 42 42 42 42 43 44 45 45 46 46 47 47 48 48 48 48 49 49 49 50 51 52 52 53 54 55
41 41 42 43 45 46 43 45 43 40 38 38 39 39 40 41 42 42 42 42 41 41 42 42 42 42 43 43 44 45 46 46 46 47 48 49 49 49 49 49 49 50 50 51 52 52 53 54 55
41 41 42 44 46 46 44 45 42 39 37 38 39 39 40 41 41 41 41 42 42 42 42 42 42 42 43 43 43 44 46 47 47 48 49 49 50 50 50 49 50 50 51 52 52 53 54 54 54
43 42 41 44 45 46 46 44 41 38 38 38 39 39 39 40 40 41 41 41 41 41 42 42 41 42 42 43 44 45 46 47 47 48 49 50 50 50 49 50 50 51 52 53 53 54 54 54 54
44 42 42 43 45 46 46 44 41 38 37 38 38 38 39 40 40 40 40 40 41 42 42 42 42 42 43 44 45 46 46 47 48 49 49 49 49 50 50 51 51 51 52 52 53 54 54 53 54
44 44 44 45 45 46 46 44 41 38 37 38 38 38 38 39 39 40 39 40 41 41 41 41 42 42 43 44 45 46 47 48 48 49 50 50 49 50 50 51 51 52 53 53 54 53 53 53 54
44 43 43 44 45 45 45 43 40 38 37 37 37 37 38 38 39 40 40 40 41 41 42 42 42 43 44 45 46 47 47 48 48 49 49 49 50 51 51 52 52 53 53 53 53 53 53 53 54
Wind_Direction
241 240 239 240 241 242 243 242 242 242 242 243 243 244 245 246 246 248 247 247 247 248 249 251 253 256 260 264 264 261 261 264 267 269 271 273 276 278 281 282 283 284 285 285 288 288 291 293 292
243 241 240 241 242 243 243 242 241 241 242 242 243 244 244 246 247 247 247 248 247 248 250 251 252 255 258 261 262 261 261 264 266 268 270 272 274 276 279 279 279 280 281 281 283 285 286 288 288
242 241 241 242 242 243 243 241 240 241 242 242 241 242 244 245 246 247 247 248 248 249 250 251 253 255 258 260 261 261 261 263 265 267 270 272 275 276 277 277 277 278 278 279 280 282 284 286 285
244 243 243 243 244 244 244 242 241 242 241 241 241 241 242 243 244 246 246 247 248 249 250 251 253 255 258 261 262 263 264 265 266 267 270 272 275 276 276 276 276 276 277 278 279 280 281 284 284
245 244 244 245 245 244 243 242 241 241 240 240 240 240 241 243 244 245 246 248 249 250 251 253 254 257 259 261 263 264 265 266 267 268 270 272 274 275 276 275 275 276 277 278 279 280 280 282 283
245 245 244 245 245 243 243 242 241 240 240 241 241 241 242 243 244 246 247 248 250 251 253 255 258 261 262 264 265 265 265 266 268 269 271 272 273 274 274 274 274 275 276 277 278 279 280 281 281
245 245 244 244 244 243 242 241 241 241 241 242 242 243 243 244 244 246 247 248 250 252 254 256 259 262 264 266 267 268 268 267 267 269 271 272 273 273 273 273 274 274 275 277 278 278 279 280 281
245 244 243 243 243 243 242 241 241 242 242 243 243 245 245 245 245 247 248 249 251 253 254 257 260 262 265 267 269 270 269 269 269 270 272 273 273 272 272 273 273 274 275 276 277 278 278 279 280
244 244 245 245 245 244 244 244 243 243 244 244 245 246 246 246 247 249 250 251 252 253 255 257 260 263 266 268 270 270 270 269 270 271 272 273 273 273 273 273 274 275 276 276 277 278 278 278 279
245 246 247 247 246 246 246 245 245 244 245 246 246 246 246 246 247 249 251 253 254 255 257 259 261 263 265 267 269 270 271 271 272 272 272 272 273 273 273 273 273 274 276 276 277 278 278 278 279
246 247 246 247 247 246 246 246 246 245 245 246 246 247 246 247 248 250 251 254 255 256 258 260 261 262 264 266 268 270 272 273 273 272 273 273 273 273 273 273 273 274 275 276 276 276 278 279 280
246 246 246 246 247 246 246 246 246 245 245 246 246 248 248 248 249 250 252 254 256 258 259 260 261 263 264 266 267 269 271 272 273 273 274 273 273 274 275 275 274 274 275 275 275 276 277 278 278
247 247 247 247 247 247 247 246 245 244 245 246 247 248 249 249 250 251 253 255 256 258 259 260 261 263 264 266 267 270 272 273 273 273 273 273 274 275 275 275 275 274 274 274 274 275 277 278 278
248 247 246 247 248 247 247 246 245 244 245 245 247 248 249 251 252 253 255 256 257 259 260 261 261 262 264 265 267 269 271 272 273 274 274 274 274 275 275 275 276 276 275 275 275 275 276 276 277
248 247 246 247 248 248 247 245 245 244 246 247 248 249 251 252 254 255 257 257 258 260 261 262 262 263 264 266 267 269 270 272 274 275 275 275 275 276 277 276 276 276 276 276 275 275 275 276 276
248 247 247 248 249 248 248 245 244 245 247 248 249 250 252 254 256 258 259 259 260 261 262 263 263 264 265 266 267 269 271 272 274 276 276 275 275 276 276 277 276 277 276 276 275 275 275 275 276
248 249 249 248 249 248 248 246 244 246 248 249 250 252 253 255 257 258 259 261 261 262 263 264 265 265 266 267 268 269 271 273 274 276 276 275 275 276 276 276 277 277 277 276 275 274 274 275 275
250 250 250 249 248 248 248 247 246 247 249 249 250 252 254 256 257 259 261 262 263 263 264 265 267 267 267 268 269 270 271 273 274 275 276 275 275 275 276 276 277 277 277 276 276 274 274 274 274
250 250 249 248 248 248 248 248 247 249 250 250 252 253 254 256 258 260 262 263 264 264 265 267 268 268 268 268 269 270 271 272 273 274 275 275 275 276 276 277 278 278 277 276 276 275 274 274 275
250 249 249 248 250 250 248 247 248 250 250 252 253 254 255 256 258 260 262 264 264 265 266 268 269 269 269 270 270 271 271 271 273 274 275 275 276 276 277 278 279 278 278 277 276 275 275 275 275
249 249 250 250 250 252 251 249 248 249 251 252 254 255 256 258 260 262 263 264 265 266 267 268 269 269 270 270 271 271 272 272 273 274 275 276 277 277 278 279 280 279 279 279 277 276 276 276 276
249 249 250 251 252 252 252 253 249 252 253 253 254 255 257 259 260 262 264 265 266 266 267 268 269 270 270 271 271 272 272 272 273 274 275 276 277 278 279 280 280 280 280 279 278 278 277 277 278
248 248 250 252 253 252 252 255 252 253 254 255 256 257 258 260 262 263 265 266 266 266 267 269 270 270 271 271 271 271 271 272 273 274 276 277 278 278 279 280 281 281 281 280 280 279 279 279 279
247 248 251 252 252 252 252 257 256 255 256 257 258 260 261 262 263 264 265 266 266 266 268 269 269 270 271 271 271 271 271 272 273 275 276 278 279 280 281 282 283 283 282 281 280 280 280 280 280
247 247 250 251 251 253 253 256 259 258 258 260 261 262 263 264 265 267 267 267 267 266 268 269 268 269 270 271 272 272 272 273 274 275 277 278 280 281 282 283 284 284 283 282 282 282 282 282 282
247 247 249 252 254 255 255 257 260 260 260 261 262 263 264 266 267 268 268 268 267 266 267 268 268 269 270 271 273 273 273 273 275 276 278 279 280 281 282 283 284 284 284 283 282 282 283 283 283
245 245 248 252 255 256 257 259 260 262 261 262 263 264 265 266 267 268 268 268 268 267 267 269 269 269 271 272 273 273 274 274 275 277 279 280 280 281 282 283 284 284 284 284 282 283 284 284 283
245 245 246 249 254 257 258 260 262 261 262 263 264 265 266 267 267 268 268 268 268 268 268 270 270 271 271 272 273 274 275 275 276 277 279 280 281 281 282 284 285 285 285 284 283 284 285 284 284
245 245 246 249 252 256 259 260 262 263 263 263 264 265 266 266 267 268 268 269 269 269 270 271 272 272 272 273 274 275 276 276 277 278 280 280 281 282 284 285 285 286 286 285 284 284 284 284 284
246 246 247 249 252 255 259 261 262 263 264 263 264 265 266 267 267 268 268 269 269 270 271 271 272 273 273 273 276 277 277 277 278 279 280 281 282 282 284 285 286 287 286 286 285 285 285 284 284